星链-1411 (STARLINK-1411 )

导读 | 豆包AI

STARLINK-1411是美国SpaceX公司星链(Starlink)卫星互联网星座中的一员,于2020年6月4日发射入轨,属于星链项目早期部署的v1.0批次卫星。星链项目旨在通过近地轨道卫星星座,为全球偏远、无网络覆盖区域提供低延迟高速宽带互联网服务。STARLINK-1411的成功入轨,进一步扩充了星链星座的卫星数量,推动了全球卫星互联网组网进程,助力SpaceX逐步实现覆盖全球的卫星互联网服务目标,星链后续逐步在全球六十多个国家和地区开通服务。

基本信息
目录编号:
45706
目录名称:
STARLINK-1411
国际标识:
2020-035BB
轨道中心:
EARTH
卫星名称:
星链-1411
卫星全名:
星链-1411 (STARLINK-1411 )
卫星状态:
在轨 (已飞行2154 天)
发射日期:
2020-06-04 UTC
国别 :
美国 (US)
星等 :
--
轨道信息
数据来源 国际轨道数据
星历时间: 2026-04-28T22:00:02+0800
9小时前
查看轨道信息
半长轴: 6724.82km
偏心率: 0.0005245
轨道倾角: 53.036°
近地点辐角 48.609°
升交点赤经 95.460°
平近点角 200.893°
近地点: 343.155km
远地点: 350.211km
周期: 91.470分钟
每日圈数: 15.742794
详细信息
固有亮度:
5
最大亮度:
2.5
卫星平台:
Starlink V1.0
覆盖范围:
全球
运营商:
太空探索技术公司
运营商所在国:
美国
制造商(研发单位):
太空探索技术公司
制造商所在国:
美国
使用方式:
暂无
卫星简介
星链(Starlink)计划是由太空探索技术公司(SpaceX)提出的一个巨型低轨卫星互联网星座项目,计划在2019年至2024年间在太空搭建由约1.2万颗卫星组成的“星链”网络,其中1584颗将部署在地球上空550千米处的近地轨道,并从2020年开始工作。该卫星仍在工作。
2D轨道图
3D轨道图
轨道高度分析图
轨道倾角分析图
轨道综合分析图
查看轨道综合分析图